When you browse on this site, cookies collect data to enhance your experience and personalize the content and advertising you see.
Visit our Privacy Policy to learn more. By continuing to use the site, you agree to this use of cookies and data.
  • In United Kingdom
  • List of Countries
  • For 7 days
  • Water Temperature
  • Weather Map
  • Weather Widgets
  • user-avatar
    Login

    Hourly Weather Krasnokamensk

    Today, 21 August, Wednesday

    Time Temperature Precipitation Wind Pressure Humidity
    00:00 +15°C° 0.2 mm 2 mps 691 mmHg 94%
    01:00 +15°C° 0.2 mm 2 mps 691 mmHg 94%
    02:00 +13°C° 0 mm 3 mps 691 mmHg 93%
    03:00 +13°C° 0.1 mm 3 mps 691 mmHg 93%
    04:00 +13°C° 0.1 mm 3 mps 691 mmHg 93%
    05:00 +13°C° 0.1 mm 4 mps 691 mmHg 93%
    06:00 +13°C° 0.3 mm 4 mps 691 mmHg 93%
    07:00 +13°C° 0.3 mm 4 mps 691 mmHg 93%
    08:00 +13°C° 0.3 mm 4 mps 692 mmHg 93%
    09:00 +13°C° 0.1 mm 4 mps 692 mmHg 92%
    10:00 +14°C° 0.1 mm 4 mps 692 mmHg 91%
    11:00 +14°C° 0.1 mm 4 mps 692 mmHg 90%
    12:00 +15°C° 0.1 mm 5 mps 693 mmHg 86%
    13:00 +16°C° 0.1 mm 6 mps 693 mmHg 83%
    14:00 +17°C° 0.1 mm 6 mps 693 mmHg 80%
    15:00 +16°C° 0 mm 6 mps 694 mmHg 81%
    16:00 +16°C° 0 mm 6 mps 694 mmHg 83%
    17:00 +15°C° 0 mm 6 mps 695 mmHg 84%
    18:00 +15°C° 0.1 mm 5 mps 695 mmHg 85%
    19:00 +14°C° 0.1 mm 5 mps 695 mmHg 86%
    20:00 +14°C° 0.1 mm 5 mps 696 mmHg 87%
    21:00 +13°C° 0.8 mm 5 mps 696 mmHg 90%
    22:00 +13°C° 0.8 mm 5 mps 696 mmHg 92%
    23:00 +12°C° 0.8 mm 5 mps 696 mmHg 95%

    Tomorrow, 22 August, Thursday

    Time Temperature Precipitation Wind Pressure Humidity
    00:00 +12°C° 0.5 mm 4 mps 696 mmHg 95%
    01:00 +12°C° 0.5 mm 4 mps 696 mmHg 95%
    02:00 +12°C° 0.5 mm 4 mps 697 mmHg 95%
    03:00 +12°C° 0.4 mm 4 mps 697 mmHg 94%
    04:00 +12°C° 0.4 mm 4 mps 697 mmHg 94%
    05:00 +12°C° 0.4 mm 4 mps 697 mmHg 94%
    06:00 +13°C° 0.2 mm 4 mps 698 mmHg 94%
    07:00 +13°C° 0.2 mm 4 mps 698 mmHg 93%
    08:00 +13°C° 0.2 mm 4 mps 699 mmHg 93%
    09:00 +13°C° 0.2 mm 4 mps 699 mmHg 93%
    10:00 +14°C° 0.2 mm 4 mps 700 mmHg 93%
    11:00 +14°C° 0.2 mm 4 mps 700 mmHg 92%
    12:00 +14°C° 0 mm 4 mps 700 mmHg 91%
    13:00 +15°C° 0 mm 4 mps 701 mmHg 90%
    14:00 +15°C° 0 mm 4 mps 701 mmHg 88%
    15:00 +15°C° 0 mm 4 mps 701 mmHg 86%
    16:00 +17°C° 0 mm 4 mps 701 mmHg 84%
    17:00 +16°C° 0 mm 5 mps 702 mmHg 82%
    18:00 +15°C° 0 mm 4 mps 702 mmHg 86%
    19:00 +14°C° 0 mm 3 mps 702 mmHg 89%
    20:00 +14°C° 0 mm 2 mps 702 mmHg 92%
    21:00 +14°C° 0 mm 2 mps 702 mmHg 92%
    22:00 +14°C° 0 mm 2 mps 702 mmHg 91%
    23:00 +14°C° 0 mm 2 mps 703 mmHg 90%

    Day after tomorrow, 23 August, Friday

    Time Temperature Precipitation Wind Pressure Humidity
    00:00 +14°C° 0 mm 2 mps 703 mmHg 90%
    01:00 +14°C° 0 mm 1 mps 703 mmHg 91%
    02:00 +14°C° 0 mm 1 mps 703 mmHg 91%
    03:00 +14°C° 0 mm 1 mps 703 mmHg 91%
    04:00 +14°C° 0 mm 1 mps 703 mmHg 91%
    05:00 +14°C° 0 mm 1 mps 703 mmHg 91%
    06:00 +14°C° 0 mm 1 mps 703 mmHg 89%
    07:00 +15°C° 0 mm 1 mps 703 mmHg 87%
    08:00 +15°C° 0 mm 1 mps 704 mmHg 85%
    09:00 +16°C° 0.1 mm 1 mps 704 mmHg 83%
    10:00 +18°C° 0.1 mm 1 mps 704 mmHg 80%
    11:00 +18°C° 0.1 mm 1 mps 704 mmHg 77%
    12:00 +19°C° 0.1 mm 1 mps 704 mmHg 76%
    13:00 +19°C° 0.1 mm 1 mps 703 mmHg 74%
    14:00 +20°C° 0.1 mm 1 mps 703 mmHg 73%
    15:00 +20°C° 0.1 mm 1 mps 703 mmHg 73%
    16:00 +20°C° 0.1 mm 1 mps 703 mmHg 73%
    17:00 +21°C° 0.1 mm 1 mps 702 mmHg 73%
    18:00 +19°C° 0 mm 1 mps 702 mmHg 77%
    19:00 +18°C° 0 mm 1 mps 702 mmHg 81%
    20:00 +14°C° 0 mm 0 mps 702 mmHg 86%
    21:00 +14°C° 0 mm 0 mps 702 mmHg 87%
    22:00 +13°C° 0 mm 0 mps 702 mmHg 88%
    23:00 +13°C° 0 mm 0 mps 702 mmHg 89%

    24 August, Saturday

    Time Temperature Precipitation Wind Pressure Humidity
    00:00 +13°C° 0 mm 0 mps 702 mmHg 89%
    01:00 +12°C° 0 mm 0 mps 702 mmHg 89%
    02:00 +12°C° 0 mm 0 mps 702 mmHg 90%
    03:00 +12°C° 0 mm 0 mps 702 mmHg 90%
    04:00 +12°C° 0 mm 0 mps 702 mmHg 90%
    05:00 +11°C° 0 mm 0 mps 702 mmHg 90%
    06:00 +13°C° 0 mm 0 mps 702 mmHg 86%
    07:00 +15°C° 0 mm 0 mps 703 mmHg 82%
    08:00 +16°C° 0 mm 0 mps 703 mmHg 78%
    09:00 +18°C° 0 mm 0 mps 703 mmHg 72%
    10:00 +19°C° 0 mm 0 mps 703 mmHg 66%
    11:00 +23°C° 0 mm 1 mps 703 mmHg 60%
    12:00 +23°C° 0 mm 1 mps 703 mmHg 57%
    13:00 +24°C° 0 mm 1 mps 703 mmHg 54%
    14:00 +25°C° 0 mm 1 mps 702 mmHg 50%
    15:00 +24°C° 0 mm 1 mps 702 mmHg 53%
    16:00 +24°C° 0 mm 1 mps 702 mmHg 57%
    17:00 +24°C° 0 mm 1 mps 702 mmHg 60%
    18:00 +22°C° 0 mm 1 mps 702 mmHg 65%
    19:00 +20°C° 0 mm 1 mps 701 mmHg 71%
    20:00 +16°C° 0 mm 0 mps 701 mmHg 76%
    21:00 +16°C° 0 mm 0 mps 701 mmHg 77%
    22:00 +15°C° 0 mm 0 mps 701 mmHg 78%
    23:00 +15°C° 0 mm 0 mps 701 mmHg 79%

    25 August, Sunday

    Time Temperature Precipitation Wind Pressure Humidity
    00:00 +15°C° 0 mm 0 mps 701 mmHg 80%
    01:00 +14°C° 0 mm 0 mps 701 mmHg 81%
    02:00 +14°C° 0 mm 0 mps 701 mmHg 82%
    03:00 +14°C° 0 mm 0 mps 701 mmHg 83%
    04:00 +13°C° 0 mm 0 mps 701 mmHg 83%
    05:00 +13°C° 0 mm 0 mps 701 mmHg 84%
    06:00 +16°C° 0 mm 1 mps 701 mmHg 80%
    07:00 +18°C° 0 mm 1 mps 701 mmHg 76%
    08:00 +20°C° 0 mm 1 mps 702 mmHg 72%
    09:00 +20°C° 0 mm 2 mps 702 mmHg 69%
    10:00 +21°C° 0 mm 3 mps 702 mmHg 65%
    11:00 +24°C° 0 mm 3 mps 702 mmHg 62%
    12:00 +24°C° 0 mm 3 mps 701 mmHg 60%
    13:00 +25°C° 0 mm 4 mps 701 mmHg 58%
    14:00 +25°C° 0 mm 4 mps 701 mmHg 55%
    15:00 +25°C° 0 mm 4 mps 700 mmHg 58%
    16:00 +25°C° 0 mm 3 mps 700 mmHg 60%
    17:00 +24°C° 0 mm 3 mps 699 mmHg 62%
    18:00 +21°C° 0 mm 3 mps 699 mmHg 67%
    19:00 +20°C° 0 mm 3 mps 698 mmHg 72%
    20:00 +18°C° 0 mm 2 mps 698 mmHg 77%
    21:00 +17°C° 0 mm 2 mps 698 mmHg 78%
    22:00 +16°C° 0 mm 2 mps 697 mmHg 80%
    23:00 +16°C° 0 mm 2 mps 697 mmHg 81%

    26 August, Monday

    Time Temperature Precipitation Wind Pressure Humidity
    00:00 +15°C° 0 mm 1 mps 697 mmHg 82%
    01:00 +15°C° 0 mm 1 mps 696 mmHg 83%
    02:00 +14°C° 0 mm 1 mps 696 mmHg 85%
    03:00 +15°C° 0.6 mm 1 mps 696 mmHg 87%
    04:00 +15°C° 0.6 mm 1 mps 696 mmHg 90%
    05:00 +15°C° 0.6 mm 1 mps 696 mmHg 93%
    06:00 +15°C° 0.4 mm 2 mps 696 mmHg 92%
    07:00 +15°C° 0.4 mm 2 mps 696 mmHg 91%
    08:00 +16°C° 0.4 mm 3 mps 696 mmHg 91%
    09:00 +15°C° 0.1 mm 4 mps 696 mmHg 86%
    10:00 +16°C° 0.1 mm 5 mps 697 mmHg 81%
    11:00 +17°C° 0.1 mm 6 mps 697 mmHg 76%
    12:00 +19°C° 0 mm 6 mps 697 mmHg 72%
    13:00 +20°C° 0 mm 6 mps 697 mmHg 67%
    14:00 +21°C° 0 mm 6 mps 698 mmHg 63%
    15:00 +21°C° 0 mm 6 mps 698 mmHg 63%
    16:00 +20°C° 0 mm 5 mps 698 mmHg 64%
    17:00 +20°C° 0 mm 5 mps 698 mmHg 64%
    18:00 +19°C° 0 mm 5 mps 698 mmHg 68%
    19:00 +17°C° 0 mm 4 mps 698 mmHg 72%
    20:00 +14°C° 0 mm 4 mps 698 mmHg 76%
    21:00 +14°C° 0 mm 3 mps 698 mmHg 77%
    22:00 +13°C° 0 mm 3 mps 698 mmHg 77%
    23:00 +13°C° 0 mm 3 mps 698 mmHg 77%
    Show more